Home > Weather > Fellbach > Past weeks

Flag for Germany Weather for the Past 2 Weeks in Fellbach, Baden-Württemberg, Germany

Now
45 °F

Passing clouds.


Feels Like: 45 °F
Forecast: 39 / 64 °F
Wind: 2 mph from North

Location: Stuttgart-Echterdingen

Current Time: May 4, 2016 at 2:16:42 AM

Latest Report: May 4, 2016 at 1:50 AM


Visibility: N/A

Pressure: 30.30 "Hg

Humidity: 87%

Dew Point: 41 °F

Location of FellbachLocation

Historic Weather in Fellbach — Graph

°F

Fellbach Temperature Yesterday

Maximum temperature yesterday: 59 °F (at 11:50 AM)
Minimum temperature yesterday: 41 °F (at 6:20 AM)
Average temperature yesterday: 49 °F

High & Low Weather Summary for the Past Weeks

 TemperatureHumidityPressure
High68 °F (Apr 21, 3:50 PM)100% (Apr 24, 10:50 PM)30.39 "Hg (Apr 24, 10:50 PM)
Low30 °F (Apr 29, 3:50 AM)24% (Apr 21, 6:20 PM)29.56 "Hg (Apr 26, 5:50 AM)
Average46 °F70%30.01 "Hg
* Reported Apr 19 12:20 AM — May 4 12:50 AM, Fellbach, Weather by CustomWeather, © 2016

Note: Actual official high and low records may vary slightly from our data, if they occured in-between our weather recording intervals... More about our weather records

Advertising

Fellbach Weather History for the Previous 24 Hours

Scroll right to see more
 ConditionsComfort  
Time TempWeatherWind HumidityBarometerVisibility
12:50 AM
Wed, May 4
45 °FPassing clouds.2 mph87%30.30 "HgN/A
12:20 AM45 °FClear.1 mph87%30.30 "Hg10 mi
11:50 PM
Tue, May 3
45 °FClear.2 mph87%30.30 "Hg10 mi
11:20 PM45 °FPassing clouds.3 mph93%30.30 "HgN/A
10:50 PM45 °FPassing clouds.2 mph87%30.30 "HgN/A
10:20 PM43 °FPassing clouds.1 mph93%30.27 "HgN/A
9:50 PM45 °FPassing clouds.8 mph93%30.27 "HgN/A
9:20 PM46 °FScattered clouds.7 mph87%30.24 "HgN/A
8:50 PM48 °FScattered clouds.7 mph87%30.24 "HgN/A
8:20 PM48 °FScattered clouds.7 mph87%30.21 "HgN/A
7:50 PM48 °FScattered clouds.8 mph87%30.21 "HgN/A
7:20 PM46 °FSprinkles. Broken clouds.14 mph82%30.18 "HgN/A
6:50 PM50 °FBroken clouds.16 mph76%30.18 "HgN/A
6:20 PM52 °FScattered clouds.10 mph72%30.18 "HgN/A
5:50 PM50 °FScattered clouds.12 mph76%30.18 "HgN/A
5:20 PM50 °FBroken clouds.15 mph82%30.18 "HgN/A
4:50 PM50 °FBroken clouds.15 mph82%30.15 "HgN/A
4:20 PM50 °FLight rain. Broken clouds.15 mph82%30.15 "HgN/A
3:50 PM50 °FLight rain. Broken clouds.13 mph82%30.15 "HgN/A
3:20 PM50 °FLight rain. Broken clouds.14 mph82%30.15 "HgN/A
2:50 PM50 °FPartly sunny.15 mph88%30.15 "HgN/A
2:20 PM50 °FLight rain. Partly sunny.17 mph88%30.15 "HgN/A
1:50 PM50 °FLight rain. Partly sunny.18 mph94%30.12 "HgN/A
1:20 PM54 °FLight rain. Broken clouds.23 mph77%30.12 "HgN/A
12:50 PM57 °FBroken clouds.17 mph63%30.09 "HgN/A
12:20 PM59 °FScattered clouds.14 mph59%30.09 "HgN/A
11:50 AM59 °FScattered clouds.10 mph59%30.09 "HgN/A
11:20 AM57 °FScattered clouds.8 mph59%30.09 "HgN/A
10:50 AM57 °FBroken clouds.14 mph59%30.09 "HgN/A
10:20 AM57 °FBroken clouds.12 mph59%30.09 "HgN/A
9:50 AM57 °FBroken clouds.3 mph63%30.09 "HgN/A
9:20 AM55 °FSunny.2 mph67%30.09 "Hg10 mi
8:50 AM54 °FPassing clouds.3 mph67%30.09 "HgN/A
8:20 AM50 °FSunny.2 mph76%30.09 "Hg10 mi
7:20 AM45 °FSunny.1 mph81%30.09 "Hg10 mi
6:50 AM43 °FClear.1 mph87%30.09 "Hg10 mi
6:20 AM41 °FClear.1 mph87%30.07 "Hg10 mi
5:50 AM43 °FClear.1 mph87%30.07 "Hg10 mi
5:20 AM43 °FClear.2 mph81%30.07 "Hg10 mi
4:20 AM45 °FPassing clouds.3 mph76%30.09 "HgN/A
3:50 AM43 °FClear.2 mph81%30.07 "Hg10 mi
3:20 AM45 °FClear.3 mph81%30.09 "Hg10 mi
2:50 AM45 °FClear.1 mph76%30.09 "Hg10 mi
2:20 AM46 °FClear.2 mph76%30.09 "Hg10 mi
Weather by CustomWeather, © 2016

See weather overviewHow to use our weather pages